SCP
0 -0 0 -0 -0 0 0 0 -0 -0 -0 -0 -0 -0 -0 0 -0 0 0 -0 0 0 0 0 0 0 0 0 0 0 0 0 -0 -0 -0 -0 -0 -0 -0 -0 -0 -0 -0
0 0 0 0 0 -0 0 -0 -0 -0 -0 -0 -0 -0 0 -0 -0 0 -0 -0 -0 0 0 0 0 0 0 0 0 0 0 0 0 -0 -0 -0 -0 -0 -0 -0 -0 -0 -0
0 -0 0 -0 0 0 -0 -0 -0 -0 -0 -0 0 0 -0 -0 -0 0 -0 -0 0 0 0 0 0 0 0 0 0 0 0 0 0 0 0 0 -0 -0 -0 -0 -0 -0 -0
0 0 -0 -0 0 0 -0 0 -0 0 -0 0 0 -0 0 0 0 0 -0 -0 -0 0 0 0 0 0 0 0 0 0 0 0 0 0 0 0 0 0 -0 -0 -0 -0 -0
0 -0 0 0 0 0 0 0 -0 0 0 0 0 0 -0 0 -0 0 0 0 -0 0 0 0 0 0 0 0 0 0 0 0 0 0 0 0 0 0 0 -0 -0 -0 -0
0 0 -0 0 0 0 0 -0 0 -0 -0 -0 -0 0 -0 0 0 0 0 0 0 0 0 0 0 0 0 0 0 0 0 0 0 0 0 0 0 0 0 0 -0 -0 -0
-0 0 -0 0 0 -0 0 0 0 -0 -0 0 0 0 -0 0 0 0 -0 0 0 0 0 0 0 1 0 0 0 0 0 0 0 0 0 0 0 0 0 0 -0 -0 -0
-0 0 -0 0 0 -0 0 0 0 0 -0 0 0 0 0 0 0 -0 0 0 0 0 0 0 0 0 0 0 0 0 0 0 0 0 0 0 0 0 0 0 0 -0 -0
-0 0 0 -0 0 0 0 0 0 -0 0 0 0 0 0 0 -0 0 0 0 0 0 0 0 0 1 0 0 0 0 0 0 0 0 0 0 0 0 0 0 0 0 0
0 0 0 0 -0 -0 1 0 0 0 0 0 0 0 0 0 0 -0 0 0 0 0 0 0 0 0 1 0 0 0 -0 0 0 0 0 0 0 0 0 0 0 0 0
0 -0 0 0 0 0 0 0 0 0 0 0 0 0 0 0 0 0 0 -0 0 0 0 0 0 0 0 0 0 0 -0 0 0 0 0 0 0 0 0 0 0 0 0
0 0 0 0 0 0 0 0 0 0 0 0 0 0 0 0 0 -0 -0 0 -0 0 0 0 0 0 0 0 0 -0 0 0 0 0 0 0 0 0 0 0 0 0 0
0 1 1 0 0 0 0 0 1 0 0 0 0 -0 -0 0 0 -0 0 -0 -0 0 0 0 0 0 0 0 0 0 0 0 0 0 0 0 0 0 0 0 0 0 0
-0 2 1 1 0 0 0 1 0 0 0 0 0 0 0 0 0 0 -0 -0 -0 -0 1 1 1 0 0 0 1 0 0 -0 0 0 0 0 0 0 0 0 0 0 0
-1 1 1 1 1 0 0 1 0 0 0 1 0 0 0 0 -0 0 0 0 0 0 0 1 1 2 1 1 1 1 1 0 0 0 0 0 0 0 0 0 0 0 0
-0 1 2 0 1 1 1 1 1 1 0 0 0 0 0 0 0 0 1 1 1 1 0 0 1 3 1 2 1 1 1 0 0 0 0 0 0 0 0 0 0 0 0
2 1 2 2 1 1 1 1 1 1 1 0 0 0 0 1 0 0 1 1 1 1 1 0 0 1 6 4 2 1 1 1 1 0 0 0 0 0 0 0 0 0 0
1 2 1 2 2 2 2 2 1 1 1 1 0 1 0 1 1 1 0 1 1 1 0 0 1 1 1 3 3 1 1 1 1 0 0 0 0 0 0 0 0 0 0
2 1 2 2 2 2 2 2 2 2 1 1 1 1 1 0 0 0 0 1 0 0 0 0 0 1 2 2 1 2 2 2 1 1 0 0 0 0 0 0 0 0 0
1 2 3 4 3 2 2 3 2 1 1 1 1 0 0 0 0 0 0 0 0 0 0 0 0 0 0 0 2 2 1 2 2 1 1 0 0 0 0 0 0 0 0
1 1 1 2 2 2 2 1 1 1 1 1 0 0 0 0 0 0 0 0 0 0 0 0 0 0 0 0 0 1 1 1 2 1 1 1 2 0 0 0 0 0 0
0 0 0 0 0 0 0 0 0 0 0 0 0 0 0 0 0 0 0 0 0 0 0 0 0 0 0 0 0 0 0 0 0 0 1 1 2 2 0 0 0 0 0
0 0 0 0 0 0 0 0 0 0 0 0 0 0 0 0 0 0 0 0 0 0 0 0 0 0 0 1 1 2 1 1 1 0 1 1 1 1 2 1 0 0 0
0 0 0 0 0 0 0 0 0 0 0 0 0 0 0 0 0 0 0 0 0 0 0 0 0 0 1 1 1 2 3 2 1 0 1 0 0 0 0 0 0 0 0
0 0 0 0 0 0 0 0 0 0 0 0 0 0 0 0 0 0 0 0 0 0 0 0 0 0 0 0 0 0 0 0 0 0 0 0 0 0 1 0 0 0 0
0 0 0 0 0 0 0 0 0 0 0 0 0 0 0 0 0 0 0 0 0 0 0 0 0 0 0 0 0 0 0 0 0 0 0 0 0 1 1 1 1 0 0
Wind_Speed_500mb
8 6 12 8 5 7 7 6 4 7 11 11 6 10 14 12 11 2 11 10 12 13 12 8 5 6 10 12 13 15 18 24 28 31 35 39 38 40 39 40 37 41 51
9 10 10 9 7 2 8 7 10 5 5 4 8 8 8 9 8 6 17 7 14 11 12 12 11 12 12 11 14 16 17 16 19 25 30 34 38 38 40 39 37 34 47
14 11 11 10 8 8 13 8 9 10 7 7 13 13 13 9 14 9 9 10 11 7 15 12 12 13 14 14 12 12 12 11 12 15 20 28 34 36 37 37 39 35 39
10 11 11 14 12 9 10 12 9 10 10 4 13 21 13 12 16 10 12 13 4 6 14 14 11 11 15 17 13 7 8 9 10 11 13 18 23 27 34 38 38 40 41
10 9 11 14 8 12 13 20 12 5 12 9 15 12 17 19 10 17 13 9 11 3 13 11 13 9 11 13 13 9 7 8 7 7 7 8 9 13 18 26 36 43 46
15 11 12 14 10 15 18 26 7 7 10 13 20 24 24 21 16 20 18 11 13 8 16 13 16 13 15 14 9 9 9 8 8 8 7 8 12 15 17 18 20 33 44
21 12 13 15 12 19 18 5 7 17 15 21 27 31 20 13 13 23 8 13 16 4 16 13 16 14 20 20 7 10 7 7 9 11 15 18 20 21 25 26 22 21 30
19 18 16 10 14 30 6 11 11 14 15 18 31 16 3 29 32 21 10 11 10 10 15 13 9 17 12 21 24 16 8 6 7 10 13 16 21 22 20 23 27 27 25
23 20 18 20 9 21 22 4 9 11 19 7 23 20 20 3 30 12 14 13 12 9 11 13 16 15 15 15 29 15 13 15 13 13 16 19 20 21 21 19 21 26 31
24 23 24 23 19 21 15 10 10 13 14 14 9 18 25 16 22 8 9 17 8 11 16 12 16 13 18 11 19 24 23 18 17 15 15 19 21 20 19 17 17 19 24
23 22 23 23 21 18 29 23 20 14 13 13 13 19 12 14 11 10 9 19 5 10 13 12 11 16 22 14 21 19 15 19 20 20 20 20 22 21 20 19 15 16 20
30 26 24 23 21 22 26 11 19 19 17 20 16 21 17 16 14 12 15 15 13 15 17 17 18 16 20 18 17 25 23 20 19 18 19 19 20 20 18 19 18 17 20
29 34 29 24 23 23 24 21 22 21 26 25 24 16 19 19 18 18 19 19 20 13 14 14 19 18 18 20 21 14 14 17 18 18 18 19 19 19 18 18 18 19 21
27 31 24 23 22 20 23 27 26 24 25 28 27 24 20 20 19 20 19 21 23 25 29 18 15 18 19 20 23 19 16 14 18 19 19 19 21 21 21 20 19 21 25
31 22 35 30 27 24 23 25 25 28 25 29 29 27 26 20 26 20 26 23 23 26 27 10 15 27 24 22 30 24 21 19 19 21 21 21 22 23 22 22 22 24 29
48 37 28 33 23 23 22 25 25 28 28 27 25 26 25 21 22 20 23 28 27 24 31 26 27 30 26 17 32 39 31 28 25 24 25 27 25 24 27 28 28 27 28
35 40 42 23 12 20 20 22 30 32 31 30 28 25 23 24 19 19 18 22 26 29 34 36 32 39 38 42 32 43 44 38 34 32 29 30 31 30 30 32 32 29 29
35 41 41 41 39 35 34 30 27 27 26 25 27 28 20 17 19 23 25 24 24 28 34 47 38 45 48 45 41 38 37 30 32 39 45 39 38 38 37 36 36 34 31
48 46 47 45 44 42 36 30 27 28 29 18 16 19 22 25 25 19 23 27 20 18 24 31 34 32 36 32 33 35 39 40 37 36 50 51 49 50 46 45 43 40 34
48 45 47 48 45 38 34 31 29 24 20 18 18 19 19 19 21 18 19 24 23 21 22 28 31 31 31 29 29 27 32 35 40 33 37 53 50 46 48 51 51 50 42
35 29 35 34 34 22 14 11 10 15 12 18 19 20 18 27 32 40 36 26 32 31 30 31 33 32 30 32 27 28 35 40 40 40 40 42 47 55 54 46 47 55 48
23 25 23 20 20 13 20 14 15 21 18 29 31 30 28 28 23 27 34 36 35 34 36 32 33 35 45 49 44 40 42 39 42 35 36 37 36 45 49 53 50 47 40
30 33 33 31 26 29 24 21 25 23 19 30 32 30 23 18 33 21 24 33 28 27 34 37 42 39 34 31 36 40 37 38 41 40 39 43 38 46 45 44 57 56 61
22 20 23 27 30 33 37 37 28 25 30 28 44 38 32 30 27 36 40 40 33 29 26 30 40 47 40 39 40 38 39 45 47 43 36 45 53 51 48 50 52 58 60
19 25 28 27 21 22 21 24 22 23 25 34 31 33 34 37 38 40 44 46 49 47 32 29 42 45 39 43 42 45 49 41 48 46 40 42 51 53 44 49 52 61 53
13 12 15 18 18 18 22 23 21 20 25 28 31 32 28 28 36 44 52 55 59 51 44 46 56 57 51 41 42 39 32 35 42 45 32 35 37 44 46 43 45 48 53
Wind_Direction_500mb
249 242 283 277 303 323 271 295 299 291 305 232 253 234 213 227 235 182 215 355 3 20 36 37 5 308 278 278 279 277 272 263 258 251 249 248 251 250 249 245 249 234 229
244 253 275 274 296 273 273 258 275 345 297 290 214 211 238 233 245 215 299 332 341 356 22 24 19 14 356 317 290 289 283 275 264 256 252 250 250 252 248 250 245 241 227
272 266 244 251 258 237 241 290 299 226 291 269 246 223 194 201 211 190 259 308 337 338 358 4 5 359 352 341 311 282 272 271 268 260 255 253 251 251 249 249 246 242 228
255 248 234 227 229 230 243 251 257 295 196 258 254 294 183 217 168 193 201 243 262 227 334 341 336 348 345 347 343 306 270 257 255 256 255 256 255 255 253 249 245 241 234
232 257 255 263 240 244 243 261 190 310 330 261 239 222 218 221 173 184 173 202 214 222 295 316 328 334 343 350 343 334 305 290 276 260 255 256 260 260 263 257 248 241 239
250 246 245 236 240 248 234 240 240 284 288 271 256 193 197 200 184 188 194 192 213 203 252 296 295 315 338 340 340 347 320 305 301 310 299 292 288 280 271 268 263 246 240
255 220 247 220 226 238 253 314 307 295 286 256 260 235 177 199 206 212 197 192 188 215 229 267 272 290 310 320 333 357 340 300 284 289 301 306 300 288 279 268 264 257 242
238 233 242 266 255 276 194 278 266 264 267 263 282 300 179 242 197 189 190 206 216 224 258 263 275 241 292 314 308 328 336 345 292 280 287 302 304 298 290 280 262 251 249
227 246 249 242 258 258 267 199 281 247 295 237 270 298 325 96 180 51 167 216 196 218 233 240 248 247 265 221 277 312 339 344 334 311 308 317 315 304 298 290 275 259 242
221 239 242 238 246 235 236 272 246 223 269 285 306 287 303 340 358 61 208 195 202 225 237 228 245 245 252 254 268 267 302 325 328 321 312 313 320 317 307 296 278 269 254
218 230 231 228 227 224 232 195 228 234 239 251 268 292 293 313 308 304 304 191 136 244 242 260 233 247 263 256 258 280 303 320 323 323 318 316 323 324 318 312 298 277 264
226 210 215 228 234 237 267 283 256 247 247 235 244 265 277 284 279 262 280 279 273 273 260 260 250 236 225 248 256 240 286 301 308 316 315 315 323 325 318 305 297 289 270
216 215 198 219 246 256 234 237 253 260 255 243 256 242 265 268 270 276 283 285 288 277 259 253 255 250 247 224 231 284 282 289 294 300 309 311 315 321 320 308 292 281 275
226 206 212 206 240 239 251 256 254 261 274 244 242 250 249 262 263 259 260 277 286 281 235 232 228 243 236 241 245 278 300 288 292 295 301 308 311 316 318 312 303 291 282
231 237 224 204 213 235 246 250 263 269 260 251 248 253 253 256 266 245 267 267 271 281 294 255 232 233 229 246 260 253 267 292 281 288 291 296 298 300 306 309 305 300 292
228 249 247 211 200 228 242 256 263 274 271 250 249 255 261 265 279 286 272 266 265 266 280 281 289 289 261 242 261 270 267 270 278 283 286 287 290 297 298 303 304 306 302
220 240 255 260 243 240 245 248 251 255 248 255 252 254 271 268 264 258 263 273 268 258 275 275 280 280 286 277 263 263 265 267 270 273 274 283 292 296 290 290 294 298 303
221 225 235 239 239 235 236 239 256 254 259 255 270 276 279 270 260 270 284 276 258 252 271 273 274 271 274 267 268 258 261 266 270 277 283 279 277 282 282 281 283 288 294
220 230 236 240 239 239 244 247 241 251 263 267 263 261 266 276 283 285 271 263 272 276 276 282 284 291 293 278 271 271 278 281 270 267 273 283 275 269 273 276 276 276 281
232 230 236 240 242 241 241 234 234 238 253 276 284 286 282 284 285 283 280 281 291 293 280 284 286 288 288 284 280 268 270 279 282 278 276 286 289 288 279 271 269 270 272
228 225 221 221 225 218 208 221 226 215 246 274 284 279 287 264 270 280 279 266 260 272 280 281 283 283 282 287 277 268 275 273 268 276 272 270 275 283 285 286 285 272 266
232 228 208 203 218 218 217 229 263 271 267 280 289 290 288 310 312 280 296 297 295 297 293 286 279 274 266 267 276 276 278 279 279 277 278 291 265 276 285 285 285 284 276
268 264 260 248 235 240 243 261 290 299 312 306 288 293 289 275 265 280 278 284 300 302 299 304 297 297 288 281 272 266 272 267 271 278 280 275 271 267 271 270 264 271 274
257 249 245 245 244 254 265 272 265 281 291 282 294 284 285 286 289 286 291 296 296 293 292 289 294 293 284 278 269 267 266 272 277 282 273 272 279 273 262 270 263 259 273
228 230 237 249 257 264 265 268 273 276 275 277 281 289 294 296 299 295 297 296 295 293 290 281 273 273 277 279 290 278 269 272 275 274 274 275 278 273 272 270 264 259 265
247 239 263 257 257 257 272 273 276 276 274 279 288 290 299 296 288 289 300 304 303 306 298 287 280 281 281 283 284 279 279 266 277 277 281 278 282 265 270 264 262 260 256
Wind_Speed_850mb
8 6 12 8 5 7 7 6 4 7 11 11 6 10 14 12 11 2 11 10 12 13 12 8 5 6 10 12 13 15 18 24 28 31 35 39 38 40 39 40 37 41 51
9 10 10 9 7 2 8 7 10 5 5 4 8 8 8 9 8 6 17 7 14 11 12 12 11 12 12 11 14 16 17 16 19 25 30 34 38 38 40 39 37 34 47
14 11 11 10 8 8 13 8 9 10 7 7 13 13 13 9 14 9 9 10 11 7 15 12 12 13 14 14 12 12 12 11 12 15 20 28 34 36 37 37 39 35 39
10 11 11 14 12 9 10 12 9 10 10 4 13 21 13 12 16 10 12 13 4 6 14 14 11 11 15 17 13 7 8 9 10 11 13 18 23 27 34 38 38 40 41
10 9 11 14 8 12 13 20 12 5 12 9 15 12 17 19 10 17 13 9 11 3 13 11 13 9 11 13 13 9 7 8 7 7 7 8 9 13 18 26 36 43 46
15 11 12 14 10 15 18 26 7 7 10 13 20 24 24 21 16 20 18 11 13 8 16 13 16 13 15 14 9 9 9 8 8 8 7 8 12 15 17 18 20 33 44
21 12 13 15 12 19 18 5 7 17 15 21 27 31 20 13 13 23 8 13 16 4 16 13 16 14 20 20 7 10 7 7 9 11 15 18 20 21 25 26 22 21 30
19 18 16 10 14 30 6 11 11 14 15 18 31 16 3 29 32 21 10 11 10 10 15 13 9 17 12 21 24 16 8 6 7 10 13 16 21 22 20 23 27 27 25
23 20 18 20 9 21 22 4 9 11 19 7 23 20 20 3 30 12 14 13 12 9 11 13 16 15 15 15 29 15 13 15 13 13 16 19 20 21 21 19 21 26 31
24 23 24 23 19 21 15 10 10 13 14 14 9 18 25 16 22 8 9 17 8 11 16 12 16 13 18 11 19 24 23 18 17 15 15 19 21 20 19 17 17 19 24
23 22 23 23 21 18 29 23 20 14 13 13 13 19 12 14 11 10 9 19 5 10 13 12 11 16 22 14 21 19 15 19 20 20 20 20 22 21 20 19 15 16 20
30 26 24 23 21 22 26 11 19 19 17 20 16 21 17 16 14 12 15 15 13 15 17 17 18 16 20 18 17 25 23 20 19 18 19 19 20 20 18 19 18 17 20
29 34 29 24 23 23 24 21 22 21 26 25 24 16 19 19 18 18 19 19 20 13 14 14 19 18 18 20 21 14 14 17 18 18 18 19 19 19 18 18 18 19 21
27 31 24 23 22 20 23 27 26 24 25 28 27 24 20 20 19 20 19 21 23 25 29 18 15 18 19 20 23 19 16 14 18 19 19 19 21 21 21 20 19 21 25
31 22 35 30 27 24 23 25 25 28 25 29 29 27 26 20 26 20 26 23 23 26 27 10 15 27 24 22 30 24 21 19 19 21 21 21 22 23 22 22 22 24 29
48 37 28 33 23 23 22 25 25 28 28 27 25 26 25 21 22 20 23 28 27 24 31 26 27 30 26 17 32 39 31 28 25 24 25 27 25 24 27 28 28 27 28
35 40 42 23 12 20 20 22 30 32 31 30 28 25 23 24 19 19 18 22 26 29 34 36 32 39 38 42 32 43 44 38 34 32 29 30 31 30 30 32 32 29 29
35 41 41 41 39 35 34 30 27 27 26 25 27 28 20 17 19 23 25 24 24 28 34 47 38 45 48 45 41 38 37 30 32 39 45 39 38 38 37 36 36 34 31
48 46 47 45 44 42 36 30 27 28 29 18 16 19 22 25 25 19 23 27 20 18 24 31 34 32 36 32 33 35 39 40 37 36 50 51 49 50 46 45 43 40 34
48 45 47 48 45 38 34 31 29 24 20 18 18 19 19 19 21 18 19 24 23 21 22 28 31 31 31 29 29 27 32 35 40 33 37 53 50 46 48 51 51 50 42
35 29 35 34 34 22 14 11 10 15 12 18 19 20 18 27 32 40 36 26 32 31 30 31 33 32 30 32 27 28 35 40 40 40 40 42 47 55 54 46 47 55 48
23 25 23 20 20 13 20 14 15 21 18 29 31 30 28 28 23 27 34 36 35 34 36 32 33 35 45 49 44 40 42 39 42 35 36 37 36 45 49 53 50 47 40
30 33 33 31 26 29 24 21 25 23 19 30 32 30 23 18 33 21 24 33 28 27 34 37 42 39 34 31 36 40 37 38 41 40 39 43 38 46 45 44 57 56 61
22 20 23 27 30 33 37 37 28 25 30 28 44 38 32 30 27 36 40 40 33 29 26 30 40 47 40 39 40 38 39 45 47 43 36 45 53 51 48 50 52 58 60
19 25 28 27 21 22 21 24 22 23 25 34 31 33 34 37 38 40 44 46 49 47 32 29 42 45 39 43 42 45 49 41 48 46 40 42 51 53 44 49 52 61 53
13 12 15 18 18 18 22 23 21 20 25 28 31 32 28 28 36 44 52 55 59 51 44 46 56 57 51 41 42 39 32 35 42 45 32 35 37 44 46 43 45 48 53
Wind_Direction_850mb
249 242 283 277 303 323 271 295 299 291 305 232 253 234 213 227 235 182 215 355 3 20 36 37 5 308 278 278 279 277 272 263 258 251 249 248 251 250 249 245 249 234 229
244 253 275 274 296 273 273 258 275 345 297 290 214 211 238 233 245 215 299 332 341 356 22 24 19 14 356 317 290 289 283 275 264 256 252 250 250 252 248 250 245 241 227
272 266 244 251 258 237 241 290 299 226 291 269 246 223 194 201 211 190 259 308 337 338 358 4 5 359 352 341 311 282 272 271 268 260 255 253 251 251 249 249 246 242 228
255 248 234 227 229 230 243 251 257 295 196 258 254 294 183 217 168 193 201 243 262 227 334 341 336 348 345 347 343 306 270 257 255 256 255 256 255 255 253 249 245 241 234
232 257 255 263 240 244 243 261 190 310 330 261 239 222 218 221 173 184 173 202 214 222 295 316 328 334 343 350 343 334 305 290 276 260 255 256 260 260 263 257 248 241 239
250 246 245 236 240 248 234 240 240 284 288 271 256 193 197 200 184 188 194 192 213 203 252 296 295 315 338 340 340 347 320 305 301 310 299 292 288 280 271 268 263 246 240
255 220 247 220 226 238 253 314 307 295 286 256 260 235 177 199 206 212 197 192 188 215 229 267 272 290 310 320 333 357 340 300 284 289 301 306 300 288 279 268 264 257 242
238 233 242 266 255 276 194 278 266 264 267 263 282 300 179 242 197 189 190 206 216 224 258 263 275 241 292 314 308 328 336 345 292 280 287 302 304 298 290 280 262 251 249
227 246 249 242 258 258 267 199 281 247 295 237 270 298 325 96 180 51 167 216 196 218 233 240 248 247 265 221 277 312 339 344 334 311 308 317 315 304 298 290 275 259 242
221 239 242 238 246 235 236 272 246 223 269 285 306 287 303 340 358 61 208 195 202 225 237 228 245 245 252 254 268 267 302 325 328 321 312 313 320 317 307 296 278 269 254
218 230 231 228 227 224 232 195 228 234 239 251 268 292 293 313 308 304 304 191 136 244 242 260 233 247 263 256 258 280 303 320 323 323 318 316 323 324 318 312 298 277 264
226 210 215 228 234 237 267 283 256 247 247 235 244 265 277 284 279 262 280 279 273 273 260 260 250 236 225 248 256 240 286 301 308 316 315 315 323 325 318 305 297 289 270
216 215 198 219 246 256 234 237 253 260 255 243 256 242 265 268 270 276 283 285 288 277 259 253 255 250 247 224 231 284 282 289 294 300 309 311 315 321 320 308 292 281 275
226 206 212 206 240 239 251 256 254 261 274 244 242 250 249 262 263 259 260 277 286 281 235 232 228 243 236 241 245 278 300 288 292 295 301 308 311 316 318 312 303 291 282
231 237 224 204 213 235 246 250 263 269 260 251 248 253 253 256 266 245 267 267 271 281 294 255 232 233 229 246 260 253 267 292 281 288 291 296 298 300 306 309 305 300 292
228 249 247 211 200 228 242 256 263 274 271 250 249 255 261 265 279 286 272 266 265 266 280 281 289 289 261 242 261 270 267 270 278 283 286 287 290 297 298 303 304 306 302
220 240 255 260 243 240 245 248 251 255 248 255 252 254 271 268 264 258 263 273 268 258 275 275 280 280 286 277 263 263 265 267 270 273 274 283 292 296 290 290 294 298 303
221 225 235 239 239 235 236 239 256 254 259 255 270 276 279 270 260 270 284 276 258 252 271 273 274 271 274 267 268 258 261 266 270 277 283 279 277 282 282 281 283 288 294
220 230 236 240 239 239 244 247 241 251 263 267 263 261 266 276 283 285 271 263 272 276 276 282 284 291 293 278 271 271 278 281 270 267 273 283 275 269 273 276 276 276 281
232 230 236 240 242 241 241 234 234 238 253 276 284 286 282 284 285 283 280 281 291 293 280 284 286 288 288 284 280 268 270 279 282 278 276 286 289 288 279 271 269 270 272
228 225 221 221 225 218 208 221 226 215 246 274 284 279 287 264 270 280 279 266 260 272 280 281 283 283 282 287 277 268 275 273 268 276 272 270 275 283 285 286 285 272 266
232 228 208 203 218 218 217 229 263 271 267 280 289 290 288 310 312 280 296 297 295 297 293 286 279 274 266 267 276 276 278 279 279 277 278 291 265 276 285 285 285 284 276
268 264 260 248 235 240 243 261 290 299 312 306 288 293 289 275 265 280 278 284 300 302 299 304 297 297 288 281 272 266 272 267 271 278 280 275 271 267 271 270 264 271 274
257 249 245 245 244 254 265 272 265 281 291 282 294 284 285 286 289 286 291 296 296 293 292 289 294 293 284 278 269 267 266 272 277 282 273 272 279 273 262 270 263 259 273
228 230 237 249 257 264 265 268 273 276 275 277 281 289 294 296 299 295 297 296 295 293 290 281 273 273 277 279 290 278 269 272 275 274 274 275 278 273 272 270 264 259 265
247 239 263 257 257 257 272 273 276 276 274 279 288 290 299 296 288 289 300 304 303 306 298 287 280 281 281 283 284 279 279 266 277 277 281 278 282 265 270 264 262 260 256